Location: Chilton Park
(37.7711°N, 100.0276°W)
Time: 00:18:13
(UTC+00:00)

Cosmos 1500 Rocket - Pass Details

Date: 04 July 2022
Orbit: 601 x 632 km, 82.5° (Epoch: 16 August)

Event Time Altitude Azimuth Distance (km) Brightness Sun altitude
Exits shadow 09:47:55 25° 200° (SSW) 1,271 4.6 -15.6°
Maximum altitude 09:50:27 69° 278° (W) 674 3.6 -15.3°
Drops below altitude 10° 09:54:54 10° 2° (N) 2,017 6.9 -14.7°
Sets 09:57:10 0° 5° (N) 2,930 7.9 -14.4°
